Overview Statistics Trail Chart Weather Telemetry Raw packets
 

This is the latest recevied weather packets stored in our database for station/object N1YZ. If no packets are shown the sender has not sent any weather packets the latest 10 day(s).

<< 106 107 108 109 110 111 112 >>
Time Temp. Humidity Pressure Rain* Wind** Luminosity Snow
1787848696 25° C 95% 1035.6 hPa 0 mm - 269 W/m² -
1787848391 25° C 97% 1035.6 hPa 0 mm - 194 W/m² -
1787848090 24.44° C 98% 1035.8 hPa 0 mm - 188 W/m² -
1787847784 24.44° C 99% 1035.9 hPa 0 mm - 169 W/m² -
1787847479 24.44° C 99% 1036 hPa 0 mm - 185 W/m² -
1787847169 23.89° C 99% 1035.8 hPa 0 mm - 189 W/m² -
1787846866 23.89° C 99% 1036.1 hPa 0 mm - 176 W/m² -
1787846560 23.89° C 99% 1036.1 hPa 0 mm - 196 W/m² -
1787846255 23.89° C 99% 1036.1 hPa 0 mm - 198 W/m² -
1787845952 23.89° C 99% 1036.4 hPa 0 mm - 179 W/m² -
1787845647 23.33° C 99% 1036.4 hPa 0 mm - 151 W/m² -
1787845346 23.89° C 99% 1036.2 hPa 0 mm - 142 W/m² -
1787845042 23.89° C 99% 1036.2 hPa 0 mm - 132 W/m² -
1787844738 23.33° C 99% 1036.3 hPa 0 mm - 124 W/m² -
1787844436 23.33° C 99% 1036.2 hPa 0 mm - 111 W/m² -
1787844132 23.33° C 99% 1036.2 hPa 0 mm - 91 W/m² -
1787843826 23.33° C 99% 1036 hPa 0 mm - 78 W/m² -
1787843524 23.33° C 99% 1035.8 hPa 0 mm - 72 W/m² -
1787843218 22.78° C 99% 1035.9 hPa 0 mm - 73 W/m² -
1787842912 22.78° C 99% 1035.9 hPa 0 mm - 75 W/m² -
1787842607 22.78° C 99% 1036.1 hPa 0 mm - 76 W/m² -
1787842302 22.78° C 99% 1035.9 hPa 0 mm - 74 W/m² -
1787842002 22.78° C 99% 1035.8 hPa 0 mm - 73 W/m² -
1787841698 22.78° C 99% 1035.8 hPa 0 mm - 74 W/m² -
1787841397 22.78° C 99% 1035.9 hPa 0 mm - 78 W/m² -

* Rain latest hour (hover to see other rain measurements)
** Current wind speed in m/s (hover to see current wind gust speed)